Regional Weather Roundup
Issued by NWS Cleveland, OH

Home | Current Version | Previous Version | Graphics & Text | Print | Product List | Glossary On
Versions: 1 2 3 4 5 6 7 8 9 10 11 12 13 14 15 16 17 18 19 20 21 22 23 24 25 26 27 28 29 30 31 32 33 34 35 36 37 38 39 40 41 42 43 44 45 46 47 48 49 50
000
ASUS41 KCLE 272310
RWRCLE
OHIO REGIONAL WEATHER ROUNDUP
NATIONAL WEATHER SERVICE WILMINGTON, OH
700 PM EDT WED AUG 27 2014

NOTE: "FAIR" INDICATES FEW OR NO CLOUDS BELOW 12,000 FEET WITH NO
SIGNIFICANT WEATHER AND/OR OBSTRUCTIONS TO VISIBILITY.

OHZ001>008-015>018-024>027-034-035-043-044-280000-
   NORTHWEST OHIO

CITY           SKY/WX    TMP DP  RH WIND       PRES   REMARKS
DEFIANCE       MOSUNNY   80  60  50 N9        30.06S
FINDLAY        MOSUNNY   81  65  58 N8        30.04S
TOLEDO EXPRESS PTSUNNY   77  62  59 N8        30.06F
TOLEDO METCALF PTSUNNY   75  64  68 E3        30.07F
LIMA           PTSUNNY   81  68  64 N6        30.06S
$$

OHZ009>014-019>023-028>033-038-089-280000-
   NORTHEAST OHIO

CITY           SKY/WX    TMP DP  RH WIND       PRES   REMARKS
CLE-HOPKINS    PTSUNNY   71  61  70 N9        30.08F
CLE-LAKEFRONT  MOSUNNY   72  62  71 N8        30.05S
CUY CO. ARPT   PTSUNNY   72  64  78 N12       30.08S
LORAIN-ELYRIA  MOSUNNY   74  62  66 N9        30.08S
ASHTABULA      MOSUNNY   69  60  73 N5        30.07F
AKRON-CANTON   PTSUNNY   75  63  66 N9        30.05R
WOOSTER        PTSUNNY   73  64  73 N10       30.06F
MANSFIELD      MOSUNNY   74  65  73 N10       30.08R
YOUNGSTOWN     PTSUNNY   73  62  68 N12       30.05F
$$

OHZ042-051>053-060>062-070>072-077>081-280000-
  SOUTHWEST OHIO

CITY           SKY/WX    TMP DP  RH WIND       PRES   REMARKS
CINC-COVINGTON MOSUNNY   88  69  53 NW10      30.02S HX  92
CINC-LUNKEN    MOSUNNY   88  70  55 N9        30.00S HX  93
HAMILTON       SUNNY     86  73  65 N10       30.02S HX  93
DAYTON         MOSUNNY   84  71  65 N9        30.05F
WRIGHT-PAT AFB MOSUNNY   84  71  65 N8        30.03S
DAYTON GENERAL MOSUNNY   84  72  67 N8        30.03S
WILMINGTON     MOSUNNY   84  70  62 N7        30.02F
$$

OHZ036-037-039>041-045>050-054>059-063>069-073>076-082>088-280000-
  CENTRAL AND SOUTHEAST OHIO

CITY           SKY/WX    TMP DP  RH WIND       PRES   REMARKS
COLUMBUS       PTSUNNY   84  70  62 N8        30.01F
OSU AIRPORT    SUNNY     82  69  64 N8        30.02F
BOLTON FIELD   PTSUNNY   81  73  78 CALM      30.02F
RICKENBACK AFB MOSUNNY   80  65  60 CALM      30.01F
NEWARK         MOSUNNY   82  69  64 NW9       30.01F
MARION         MOSUNNY   78  68  71 NE10      30.05S
LANCASTER      MOSUNNY   80  72  76 VRB5      30.01F
ZANESVILLE     MOSUNNY   81  70  69 N3        30.01S
NEW PHILLY     MOSUNNY   78  70  76 N14       30.02S
$$


USA.gov is the U.S. government's official web portal to all federal, state and local government web resources and services.